This is the latest recevied weather packets stored in our database for station/object KQ4NAL. If no packets are shown the sender has not sent any weather packets the latest 1 day(s).
| Time | Temp. | Humidity | Pressure | Rain* | Wind** | Luminosity | Snow |
|---|---|---|---|---|---|---|---|
| 1778108177 | 14.44° C | 56% | 1013.8 hPa | 0 mm | - | 124 W/m² | - |
| 1778107267 | 14.44° C | 54% | 1013.9 hPa | 0 mm | - | 98 W/m² | - |
| 1778106963 | 14.44° C | 56% | 1014.1 hPa | 0 mm | - | 114 W/m² | - |
| 1778105144 | 15.56° C | 55% | 1014.4 hPa | 0 mm | - | 147 W/m² | - |
| 1778103325 | 15.56° C | 53% | 1014.3 hPa | 0 mm | - | 239 W/m² | - |
| 1778102413 | 15.56° C | 55% | 1014.3 hPa | 0 mm | - | 319 W/m² | - |
| 1778100896 | 15.56° C | 56% | 1013.9 hPa | 0 mm | - | 210 W/m² | - |
| 1778100592 | 15.56° C | 54% | 1013.9 hPa | 0 mm | - | 196 W/m² | - |
| 1778099381 | 16.67° C | 50% | 1013.8 hPa | 0 mm | - | 267 W/m² | - |
| 1778097259 | 17.22° C | 50% | 1014 hPa | 0 mm | - | 359 W/m² | - |
| 1778094530 | 17.22° C | 47% | 1013.9 hPa | 0 mm | - | 731 W/m² | - |
| 1778094226 | 16.67° C | 51% | 1013.8 hPa | 0 mm | - | 697 W/m² | - |
| 1778093317 | 15.56° C | 52% | 1013.7 hPa | 0 mm | - | 741 W/m² | - |
| 1778092712 | 16.11° C | 54% | 1013.8 hPa | 0 mm | - | 615 W/m² | - |
| 1778090894 | 16.11° C | 57% | 1013.6 hPa | 0 mm | - | 693 W/m² | - |
| 1778089075 | 15° C | 55% | 1014.1 hPa | 0 mm | - | 697 W/m² | - |
| 1778088165 | 15° C | 59% | 1014.1 hPa | 0 mm | - | 643 W/m² | - |
| 1778087863 | 14.44° C | 60% | 1014.2 hPa | 0 mm | - | 599 W/m² | - |
| 1778086349 | 13.89° C | 62% | 1014.5 hPa | 0 mm | - | 582 W/m² | - |
| 1778085743 | 13.89° C | 63% | 1014.2 hPa | 0 mm | - | 587 W/m² | - |
| 1778083015 | 13.33° C | 67% | 1014.4 hPa | 0 mm | - | 662 W/m² | - |
| 1778082712 | 12.78° C | 69% | 1014.2 hPa | 0 mm | - | 645 W/m² | - |
| 1778081574 | 12.78° C | 70% | 1014.2 hPa | 0 mm | - | 523 W/m² | - |
| 1778080060 | 12.22° C | 73% | 1013.9 hPa | 0 mm | - | 920 W/m² | - |
| 1778079454 | 11.67° C | 75% | 1013.7 hPa | 0 mm | - | 431 W/m² | - |
* Rain latest hour (hover to see other rain measurements)
** Current wind speed in m/s (hover to see current wind gust speed)